Time,TemperatureF,DewpointF,PressureIn,WindDirection,WindDirectionDegrees,WindSpeedMPH,WindSpeedGustMPH,Humidity,HourlyPrecipIn,Conditions,Clouds,dailyrainin,SoftwareType,DateUTC
2013-04-28 00:00:00,46.5,39.7,30.28,SSE,148,0.0,0.0,77,0.00,,,0.00,Wunderground v.1.15,2013-04-28 04:00:00,
2013-04-28 00:05:00,46.2,39.4,30.27,SSE,148,0.0,0.0,77,0.00,,,0.00,Wunderground v.1.15,2013-04-28 04:05:00,
2013-04-28 00:10:00,45.9,39.4,30.28,SSE,148,0.0,0.0,78,0.00,,,0.00,Wunderground v.1.15,2013-04-28 04:10:00,
2013-04-28 00:15:00,45.6,39.1,30.27,SSE,148,0.0,0.0,78,0.00,,,0.00,Wunderground v.1.15,2013-04-28 04:15:00,
2013-04-28 00:20:00,45.4,38.9,30.28,SSE,148,0.0,0.0,78,0.00,,,0.00,Wunderground v.1.15,2013-04-28 04:20:00,
2013-04-28 00:25:00,45.2,38.7,30.28,SSE,148,0.0,0.0,78,0.00,,,0.00,Wunderground v.1.15,2013-04-28 04:25:00,
2013-04-28 00:30:00,45.0,38.6,30.28,SSE,148,0.0,0.0,78,0.00,,,0.00,Wunderground v.1.15,2013-04-28 04:30:00,
2013-04-28 00:35:00,45.0,38.6,30.28,SSE,148,0.0,0.0,78,0.00,,,0.00,Wunderground v.1.15,2013-04-28 04:35:00,
2013-04-28 00:45:00,44.7,38.3,30.28,SSE,148,0.0,0.0,78,0.00,,,0.00,Wunderground v.1.15,2013-04-28 04:45:00,
2013-04-28 00:55:00,44.6,38.5,30.27,SSE,148,0.0,0.0,79,0.00,,,0.00,Wunderground v.1.15,2013-04-28 04:55:00,
2013-04-28 01:00:00,44.5,38.4,30.27,SSE,148,0.0,0.0,79,0.00,,,0.00,Wunderground v.1.15,2013-04-28 05:00:00,
2013-04-28 01:05:00,44.3,38.2,30.27,SSE,148,0.0,0.0,79,0.00,,,0.00,Wunderground v.1.15,2013-04-28 05:05:00,
2013-04-28 01:15:00,44.0,37.9,30.27,SSE,148,0.0,0.0,79,0.00,,,0.00,Wunderground v.1.15,2013-04-28 05:15:00,
2013-04-28 01:20:00,43.8,38.0,30.27,SSE,148,0.0,0.0,80,0.00,,,0.00,Wunderground v.1.15,2013-04-28 05:20:00,
2013-04-28 01:25:00,43.5,37.7,30.27,SSE,148,0.0,0.0,80,0.00,,,0.00,Wunderground v.1.15,2013-04-28 05:25:00,
2013-04-28 01:30:00,43.4,37.6,30.27,SSE,148,0.0,0.0,80,0.00,,,0.00,Wunderground v.1.15,2013-04-28 05:30:00,
2013-04-28 01:35:00,43.3,37.9,30.27,SSE,148,0.0,0.0,81,0.00,,,0.00,Wunderground v.1.15,2013-04-28 05:35:00,
2013-04-28 01:40:00,43.6,38.2,30.27,SSE,148,0.0,0.0,81,0.00,,,0.00,Wunderground v.1.15,2013-04-28 05:40:00,
2013-04-28 01:45:00,43.7,38.3,30.26,SSE,148,0.0,0.0,81,0.00,,,0.00,Wunderground v.1.15,2013-04-28 05:45:00,
2013-04-28 01:50:00,43.7,38.3,30.26,SSE,148,0.0,0.0,81,0.00,,,0.00,Wunderground v.1.15,2013-04-28 05:50:00,
2013-04-28 01:55:00,43.5,38.1,30.26,SSE,148,0.0,0.0,81,0.00,,,0.00,Wunderground v.1.15,2013-04-28 05:55:00,
2013-04-28 02:05:00,43.5,38.4,30.26,SSE,148,0.0,0.0,82,0.00,,,0.00,Wunderground v.1.15,2013-04-28 06:05:00,
2013-04-28 02:10:00,43.6,38.5,30.26,SSE,148,0.0,0.0,82,0.00,,,0.00,Wunderground v.1.15,2013-04-28 06:10:00,
2013-04-28 02:20:00,43.3,38.2,30.26,SSE,148,0.0,0.0,82,0.00,,,0.00,Wunderground v.1.15,2013-04-28 06:20:00,
2013-04-28 02:25:00,43.1,38.0,30.26,SSE,148,0.0,0.0,82,0.00,,,0.00,Wunderground v.1.15,2013-04-28 06:25:00,
2013-04-28 02:30:00,43.1,38.3,30.26,SSE,148,0.0,0.0,83,0.00,,,0.00,Wunderground v.1.15,2013-04-28 06:30:00,
2013-04-28 02:35:00,43.1,38.3,30.26,SSE,148,0.0,0.0,83,0.00,,,0.00,Wunderground v.1.15,2013-04-28 06:35:00,
2013-04-28 02:40:00,43.1,38.6,30.25,SSE,148,0.0,0.0,84,0.00,,,0.00,Wunderground v.1.15,2013-04-28 06:40:00,
2013-04-28 02:45:00,42.9,38.1,30.25,SSE,148,0.0,0.0,83,0.00,,,0.00,Wunderground v.1.15,2013-04-28 06:45:00,
2013-04-28 02:50:00,42.8,38.3,30.25,SSE,148,0.0,0.0,84,0.00,,,0.00,Wunderground v.1.15,2013-04-28 06:50:00,
2013-04-28 02:55:00,42.6,38.1,30.25,SSE,148,0.0,0.0,84,0.00,,,0.00,Wunderground v.1.15,2013-04-28 06:55:00,
2013-04-28 03:05:00,42.4,37.9,30.25,SSE,148,0.0,0.0,84,0.00,,,0.00,Wunderground v.1.15,2013-04-28 07:05:00,
2013-04-28 03:10:00,42.2,38.0,30.25,SSE,148,0.0,0.0,85,0.00,,,0.00,Wunderground v.1.15,2013-04-28 07:10:00,
2013-04-28 03:15:00,42.2,38.0,30.25,SSE,148,0.0,0.0,85,0.00,,,0.00,Wunderground v.1.15,2013-04-28 07:15:00,
2013-04-28 03:25:00,41.9,37.7,30.25,SSE,148,0.0,0.0,85,0.00,,,0.00,Wunderground v.1.15,2013-04-28 07:25:00,
2013-04-28 03:30:00,41.7,37.8,30.25,SSE,148,0.0,0.0,86,0.00,,,0.00,Wunderground v.1.15,2013-04-28 07:30:00,
2013-04-28 03:35:00,41.5,37.6,30.25,SSE,148,0.0,0.0,86,0.00,,,0.00,Wunderground v.1.15,2013-04-28 07:35:00,
2013-04-28 03:40:00,41.4,37.5,30.25,SSE,148,0.0,0.0,86,0.00,,,0.00,Wunderground v.1.15,2013-04-28 07:40:00,
2013-04-28 03:45:00,41.2,37.3,30.25,SSE,148,0.0,0.0,86,0.00,,,0.00,Wunderground v.1.15,2013-04-28 07:45:00,
2013-04-28 03:50:00,41.1,37.5,30.25,SSE,148,0.0,0.0,87,0.00,,,0.00,Wunderground v.1.15,2013-04-28 07:50:00,
2013-04-28 03:55:00,41.0,37.4,30.25,SSE,148,0.0,0.0,87,0.00,,,0.00,Wunderground v.1.15,2013-04-28 07:55:00,
2013-04-28 04:00:00,40.9,37.3,30.25,SSE,148,0.0,0.0,87,0.00,,,0.00,Wunderground v.1.15,2013-04-28 08:00:00,
2013-04-28 04:05:00,40.7,37.4,30.25,SSE,148,0.0,0.0,88,0.00,,,0.00,Wunderground v.1.15,2013-04-28 08:05:00,
2013-04-28 04:10:00,40.6,37.3,30.25,SSE,148,0.0,0.0,88,0.00,,,0.00,Wunderground v.1.15,2013-04-28 08:10:00,
2013-04-28 04:20:00,40.4,37.1,30.25,SSE,148,0.0,0.0,88,0.00,,,0.00,Wunderground v.1.15,2013-04-28 08:20:00,
2013-04-28 04:30:00,40.1,36.8,30.25,SSE,148,0.0,0.0,88,0.00,,,0.00,Wunderground v.1.15,2013-04-28 08:30:00,
2013-04-28 04:35:00,40.1,37.1,30.25,SSE,148,0.0,0.0,89,0.00,,,0.00,Wunderground v.1.15,2013-04-28 08:35:00,
2013-04-28 04:40:00,40.0,37.0,30.25,SSE,148,0.0,0.0,89,0.00,,,0.00,Wunderground v.1.15,2013-04-28 08:40:00,
2013-04-28 04:45:00,39.9,36.9,30.25,SSE,148,0.0,0.0,89,0.00,,,0.00,Wunderground v.1.15,2013-04-28 08:45:00,
2013-04-28 04:50:00,39.7,36.7,30.25,SSE,148,0.0,0.0,89,0.00,,,0.00,Wunderground v.1.15,2013-04-28 08:50:00,
2013-04-28 04:55:00,39.7,37.0,30.25,SSE,148,0.0,0.0,90,0.00,,,0.00,Wunderground v.1.15,2013-04-28 08:55:00,
2013-04-28 05:00:00,39.7,37.0,30.25,SSE,148,0.0,0.0,90,0.00,,,0.00,Wunderground v.1.15,2013-04-28 09:00:00,
2013-04-28 05:10:00,39.7,37.0,30.24,SSE,148,0.0,0.0,90,0.00,,,0.00,Wunderground v.1.15,2013-04-28 09:10:00,
2013-04-28 05:15:00,39.8,37.1,30.24,SSE,148,0.0,0.0,90,0.00,,,0.00,Wunderground v.1.15,2013-04-28 09:15:00,
2013-04-28 05:20:00,39.8,37.1,30.24,SSE,148,0.0,0.0,90,0.00,,,0.00,Wunderground v.1.15,2013-04-28 09:20:00,
2013-04-28 05:30:00,39.8,37.4,30.25,SSE,148,0.0,0.0,91,0.00,,,0.00,Wunderground v.1.15,2013-04-28 09:30:00,
2013-04-28 05:35:00,39.8,37.4,30.25,SSE,148,0.0,0.0,91,0.00,,,0.00,Wunderground v.1.15,2013-04-28 09:35:00,
2013-04-28 05:40:00,40.0,37.6,30.25,SSE,148,0.0,0.0,91,0.00,,,0.00,Wunderground v.1.15,2013-04-28 09:40:00,
2013-04-28 05:45:00,39.9,37.5,30.25,SSE,148,0.0,0.0,91,0.00,,,0.00,Wunderground v.1.15,2013-04-28 09:45:00,
2013-04-28 05:55:00,39.6,37.2,30.25,SSE,148,0.0,0.0,91,0.00,,,0.00,Wunderground v.1.15,2013-04-28 09:55:00,
2013-04-28 06:00:00,39.5,37.1,30.25,SSE,148,0.0,0.0,91,0.00,,,0.00,Wunderground v.1.15,2013-04-28 10:00:00,
2013-04-28 06:05:00,39.8,37.7,30.25,SSE,148,0.0,0.0,92,0.00,,,0.00,Wunderground v.1.15,2013-04-28 10:05:00,
2013-04-28 06:10:00,40.3,38.2,30.25,SSE,148,0.0,0.0,92,0.00,,,0.00,Wunderground v.1.15,2013-04-28 10:10:00,
2013-04-28 06:15:00,40.8,38.7,30.25,SSE,148,0.0,0.0,92,0.00,,,0.00,Wunderground v.1.15,2013-04-28 10:15:00,
2013-04-28 06:20:00,41.1,38.7,30.25,SSE,148,0.0,0.0,91,0.00,,,0.00,Wunderground v.1.15,2013-04-28 10:20:00,
2013-04-28 06:25:00,41.1,38.7,30.25,SSE,148,0.0,0.0,91,0.00,,,0.00,Wunderground v.1.15,2013-04-28 10:25:00,
2013-04-28 06:35:00,42.0,39.3,30.26,SSE,148,0.0,0.0,90,0.00,,,0.00,Wunderground v.1.15,2013-04-28 10:35:00,
2013-04-28 06:40:00,42.3,39.6,30.26,SSE,148,0.0,0.0,90,0.00,,,0.00,Wunderground v.1.15,2013-04-28 10:40:00,
2013-04-28 06:45:00,42.5,39.8,30.26,SSE,148,0.0,0.0,90,0.00,,,0.00,Wunderground v.1.15,2013-04-28 10:45:00,
2013-04-28 06:50:00,42.7,39.7,30.26,SSE,148,0.0,0.0,89,0.00,,,0.00,Wunderground v.1.15,2013-04-28 10:50:00,
2013-04-28 07:00:00,43.6,40.3,30.26,SSE,148,0.0,0.0,88,0.00,,,0.00,Wunderground v.1.15,2013-04-28 11:00:00,
2013-04-28 07:05:00,44.1,40.8,30.26,SSE,148,0.0,0.0,88,0.00,,,0.00,Wunderground v.1.15,2013-04-28 11:05:00,
2013-04-28 07:10:00,44.9,41.3,30.26,SSE,148,0.0,0.0,87,0.00,,,0.00,Wunderground v.1.15,2013-04-28 11:10:00,
2013-04-28 07:15:00,45.4,42.1,30.26,SSE,148,0.0,0.0,88,0.00,,,0.00,Wunderground v.1.15,2013-04-28 11:15:00,
2013-04-28 07:20:00,46.0,42.3,30.26,SSE,148,0.0,0.0,87,0.00,,,0.00,Wunderground v.1.15,2013-04-28 11:20:00,
2013-04-28 07:25:00,46.5,42.2,30.26,SSE,148,0.0,0.0,85,0.00,,,0.00,Wunderground v.1.15,2013-04-28 11:25:00,
2013-04-28 07:35:00,47.8,42.6,30.27,SSE,148,0.0,0.0,82,0.00,,,0.00,Wunderground v.1.15,2013-04-28 11:35:00,
2013-04-28 07:40:00,48.5,42.6,30.27,SSE,148,0.0,0.0,80,0.00,,,0.00,Wunderground v.1.15,2013-04-28 11:40:00,
2013-04-28 07:50:00,49.5,42.6,30.27,SSE,149,0.0,0.0,77,0.00,,,0.00,Wunderground v.1.15,2013-04-28 11:50:00,
2013-04-28 07:55:00,50.1,43.2,30.27,SSE,149,0.0,0.0,77,0.00,,,0.00,Wunderground v.1.15,2013-04-28 11:55:00,
2013-04-28 08:00:00,50.9,43.9,30.27,SSE,149,0.0,0.0,77,0.00,,,0.00,Wunderground v.1.15,2013-04-28 12:00:00,
2013-04-28 08:05:00,51.5,43.8,30.28,WSW,248,0.0,0.0,75,0.00,,,0.00,Wunderground v.1.15,2013-04-28 12:05:00,
2013-04-28 08:10:00,52.1,43.7,30.28,WSW,249,0.0,0.0,73,0.00,,,0.00,Wunderground v.1.15,2013-04-28 12:10:00,
2013-04-28 08:15:00,52.7,43.9,30.28,WSW,249,0.0,0.0,72,0.00,,,0.00,Wunderground v.1.15,2013-04-28 12:15:00,
2013-04-28 08:20:00,53.4,44.2,30.27,WSW,250,0.0,1.0,71,0.00,,,0.00,Wunderground v.1.15,2013-04-28 12:20:00,
2013-04-28 08:25:00,53.9,44.7,30.28,WSW,250,0.0,1.0,71,0.00,,,0.00,Wunderground v.1.15,2013-04-28 12:25:00,
2013-04-28 08:30:00,54.4,44.8,30.28,WSW,248,0.0,1.0,70,0.00,,,0.00,Wunderground v.1.15,2013-04-28 12:30:00,
2013-04-28 08:35:00,54.8,45.2,30.28,WSW,255,0.0,1.0,70,0.00,,,0.00,Wunderground v.1.15,2013-04-28 12:35:00,
2013-04-28 08:40:00,55.0,45.0,30.28,WSW,257,0.0,0.0,69,0.00,,,0.00,Wunderground v.1.15,2013-04-28 12:40:00,
2013-04-28 08:50:00,55.6,45.6,30.28,SSE,148,0.0,0.0,69,0.00,,,0.00,Wunderground v.1.15,2013-04-28 12:50:00,
2013-04-28 08:55:00,55.7,45.7,30.28,SSE,147,0.0,0.0,69,0.00,,,0.00,Wunderground v.1.15,2013-04-28 12:55:00,
2013-04-28 09:00:00,56.0,46.4,30.28,SE,145,0.0,0.0,70,0.00,,,0.00,Wunderground v.1.15,2013-04-28 13:00:00,
2013-04-28 09:05:00,56.0,46.4,30.28,SSE,148,0.0,0.0,70,0.00,,,0.00,Wunderground v.1.15,2013-04-28 13:05:00,
2013-04-28 09:10:00,55.7,46.8,30.28,ESE,107,0.0,0.0,72,0.00,,,0.00,Wunderground v.1.15,2013-04-28 13:10:00,
2013-04-28 09:15:00,55.7,46.8,30.28,ESE,111,0.0,2.0,72,0.00,,,0.00,Wunderground v.1.15,2013-04-28 13:15:00,
2013-04-28 09:25:00,55.5,47.0,30.29,SE,126,1.0,2.0,73,0.00,,,0.00,Wunderground v.1.15,2013-04-28 13:25:00,
2013-04-28 09:30:00,55.5,47.3,30.29,ESE,123,1.0,1.0,74,0.00,,,0.00,Wunderground v.1.15,2013-04-28 13:30:00,
2013-04-28 09:35:00,55.9,47.7,30.29,SE,124,0.0,1.0,74,0.00,,,0.00,Wunderground v.1.15,2013-04-28 13:35:00,
2013-04-28 09:40:00,56.2,48.4,30.29,East,82,0.0,0.0,75,0.00,,,0.00,Wunderground v.1.15,2013-04-28 13:40:00,
2013-04-28 09:45:00,56.6,48.4,30.29,East,84,0.0,0.0,74,0.00,,,0.00,Wunderground v.1.15,2013-04-28 13:45:00,
2013-04-28 09:50:00,56.9,48.3,30.29,NNE,26,0.0,1.0,73,0.00,,,0.00,Wunderground v.1.15,2013-04-28 13:50:00,
2013-04-28 10:00:00,57.2,48.3,30.29,ESE,123,1.0,3.0,72,0.00,,,0.00,Wunderground v.1.15,2013-04-28 14:00:00,
2013-04-28 10:05:00,57.4,48.4,30.29,ENE,67,1.0,3.0,72,0.00,,,0.00,Wunderground v.1.15,2013-04-28 14:05:00,
2013-04-28 10:10:00,57.4,48.4,30.29,ESE,121,1.0,3.0,72,0.00,,,0.00,Wunderground v.1.15,2013-04-28 14:10:00,
2013-04-28 10:15:00,57.4,48.4,30.29,SSE,157,2.0,3.0,72,0.00,,,0.00,Wunderground v.1.15,2013-04-28 14:15:00,
2013-04-28 10:20:00,57.2,48.3,30.29,SE,138,2.0,2.0,72,0.00,,,0.00,Wunderground v.1.15,2013-04-28 14:20:00,
2013-04-28 10:25:00,57.0,48.4,30.29,ESE,118,1.0,2.0,73,0.00,,,0.00,Wunderground v.1.15,2013-04-28 14:25:00,
2013-04-28 10:30:00,57.3,48.7,30.29,East,82,0.0,5.0,73,0.00,,,0.00,Wunderground v.1.15,2013-04-28 14:30:00,
2013-04-28 10:35:00,57.4,48.4,30.29,ESE,113,1.0,5.0,72,0.00,,,0.00,Wunderground v.1.15,2013-04-28 14:35:00,
2013-04-28 10:45:00,57.8,48.5,30.28,ESE,121,1.0,2.0,71,0.00,,,0.00,Wunderground v.1.15,2013-04-28 14:45:00,
2013-04-28 10:55:00,57.1,47.4,30.28,SSE,155,2.0,2.0,70,0.00,,,0.00,Wunderground v.1.15,2013-04-28 14:55:00,
2013-04-28 11:00:00,57.1,47.8,30.28,SE,140,1.0,1.0,71,0.00,,,0.00,Wunderground v.1.15,2013-04-28 15:00:00,
2013-04-28 11:10:00,57.3,48.0,30.28,NE,56,1.0,1.0,71,0.00,,,0.00,Wunderground v.1.15,2013-04-28 15:10:00,
2013-04-28 11:15:00,57.4,47.3,30.28,ENE,72,1.0,1.0,69,0.00,,,0.00,Wunderground v.1.15,2013-04-28 15:15:00,
2013-04-28 11:20:00,57.2,47.1,30.28,NE,43,1.0,1.0,69,0.00,,,0.00,Wunderground v.1.15,2013-04-28 15:20:00,
2013-04-28 11:25:00,57.5,47.4,30.27,SE,126,1.0,2.0,69,0.00,,,0.00,Wunderground v.1.15,2013-04-28 15:25:00,
2013-04-28 11:30:00,57.1,46.6,30.28,North,9,1.0,1.0,68,0.00,,,0.00,Wunderground v.1.15,2013-04-28 15:30:00,
2013-04-28 11:35:00,57.2,47.1,30.27,SE,126,1.0,1.0,69,0.00,,,0.00,Wunderground v.1.15,2013-04-28 15:35:00,
2013-04-28 11:40:00,57.2,47.1,30.27,East,80,1.0,3.0,69,0.00,,,0.00,Wunderground v.1.15,2013-04-28 15:40:00,
2013-04-28 11:45:00,57.1,47.8,30.27,SE,136,1.0,3.0,71,0.00,,,0.00,Wunderground v.1.15,2013-04-28 15:45:00,
2013-04-28 11:50:00,57.5,47.4,30.27,ENE,63,1.0,1.0,69,0.00,,,0.00,Wunderground v.1.15,2013-04-28 15:50:00,
2013-04-28 11:55:00,57.2,47.5,30.27,ESE,108,1.0,1.0,70,0.00,,,0.00,Wunderground v.1.15,2013-04-28 15:55:00,
2013-04-28 12:00:00,57.6,48.3,30.27,ESE,112,1.0,1.0,71,0.00,,,0.00,Wunderground v.1.15,2013-04-28 16:00:00,
2013-04-28 12:05:00,57.8,48.1,30.27,South,182,1.0,1.0,70,0.00,,,0.00,Wunderground v.1.15,2013-04-28 16:05:00,
2013-04-28 12:15:00,58.0,47.5,30.26,SE,146,1.0,1.0,68,0.00,,,0.00,Wunderground v.1.15,2013-04-28 16:15:00,
2013-04-28 12:20:00,58.5,48.4,30.26,North,11,1.0,2.0,69,0.00,,,0.00,Wunderground v.1.15,2013-04-28 16:20:00,
2013-04-28 12:30:00,58.8,48.3,30.26,East,89,1.0,1.0,68,0.00,,,0.00,Wunderground v.1.15,2013-04-28 16:30:00,
2013-04-28 12:35:00,59.1,48.9,30.25,East,92,1.0,1.0,69,0.00,,,0.00,Wunderground v.1.15,2013-04-28 16:35:00,
2013-04-28 12:40:00,59.8,48.4,30.25,ESE,119,1.0,2.0,66,0.00,,,0.00,Wunderground v.1.15,2013-04-28 16:40:00,
2013-04-28 12:50:00,59.8,49.2,30.25,ESE,106,2.0,2.0,68,0.00,,,0.00,Wunderground v.1.15,2013-04-28 16:50:00,
2013-04-28 12:55:00,60.0,49.0,30.25,SSE,163,2.0,2.0,67,0.00,,,0.00,Wunderground v.1.15,2013-04-28 16:55:00,
2013-04-28 13:05:00,59.9,48.5,30.25,ENE,59,2.0,5.0,66,0.00,,,0.00,Wunderground v.1.15,2013-04-28 17:05:00,
2013-04-28 13:10:00,60.0,48.2,30.25,ESE,108,2.0,4.0,65,0.00,,,0.00,Wunderground v.1.15,2013-04-28 17:10:00,
2013-04-28 13:15:00,60.1,47.9,30.25,SE,130,3.0,4.0,64,0.00,,,0.00,Wunderground v.1.15,2013-04-28 17:15:00,
2013-04-28 13:25:00,61.0,47.0,30.24,ESE,119,3.0,7.0,60,0.00,,,0.00,Wunderground v.1.15,2013-04-28 17:25:00,
2013-04-28 13:30:00,61.3,46.8,30.24,ESE,109,3.0,8.0,59,0.00,,,0.00,Wunderground v.1.15,2013-04-28 17:30:00,
2013-04-28 13:35:00,61.7,47.2,30.24,NE,56,3.0,8.0,59,0.00,,,0.00,Wunderground v.1.15,2013-04-28 17:35:00,
2013-04-28 13:40:00,61.8,47.3,30.24,SE,130,3.0,3.0,59,0.00,,,0.00,Wunderground v.1.15,2013-04-28 17:40:00,
2013-04-28 13:45:00,61.6,47.1,30.24,SSE,157,3.0,3.0,59,0.00,,,0.00,Wunderground v.1.15,2013-04-28 17:45:00,
2013-04-28 13:50:00,61.2,47.2,30.24,NE,49,3.0,3.0,60,0.00,,,0.00,Wunderground v.1.15,2013-04-28 17:50:00,
2013-04-28 13:55:00,61.0,47.0,30.24,ESE,114,3.0,3.0,60,0.00,,,0.00,Wunderground v.1.15,2013-04-28 17:55:00,
2013-04-28 14:00:00,61.0,46.6,30.23,NE,41,3.0,6.0,59,0.00,,,0.00,Wunderground v.1.15,2013-04-28 18:00:00,
2013-04-28 14:05:00,60.8,46.4,30.23,ENE,68,3.0,6.0,59,0.00,,,0.00,Wunderground v.1.15,2013-04-28 18:05:00,
2013-04-28 14:10:00,60.5,46.5,30.23,NE,41,3.0,4.0,60,0.00,,,0.00,Wunderground v.1.15,2013-04-28 18:10:00,
2013-04-28 14:15:00,60.4,46.0,30.23,SSE,167,3.0,4.0,59,0.00,,,0.00,Wunderground v.1.15,2013-04-28 18:15:00,
2013-04-28 14:20:00,60.0,46.1,30.23,ENE,57,3.0,8.0,60,0.00,,,0.00,Wunderground v.1.15,2013-04-28 18:20:00,
2013-04-28 14:30:00,59.4,45.5,30.23,SSE,155,3.0,3.0,60,0.00,,,0.00,Wunderground v.1.15,2013-04-28 18:30:00,
2013-04-28 14:35:00,59.3,45.0,30.23,ESE,110,3.0,3.0,59,0.00,,,0.00,Wunderground v.1.15,2013-04-28 18:35:00,
2013-04-28 14:40:00,59.0,45.1,30.23,East,96,3.0,3.0,60,0.00,,,0.00,Wunderground v.1.15,2013-04-28 18:40:00,
2013-04-28 14:50:00,59.0,45.6,30.22,NNE,32,2.0,4.0,61,0.00,,,0.00,Wunderground v.1.15,2013-04-28 18:50:00,
2013-04-28 14:55:00,59.0,45.1,30.22,East,93,3.0,5.0,60,0.00,,,0.00,Wunderground v.1.15,2013-04-28 18:55:00,
2013-04-28 15:00:00,59.0,45.1,30.22,ENE,69,3.0,5.0,60,0.00,,,0.00,Wunderground v.1.15,2013-04-28 19:00:00,
2013-04-28 15:05:00,58.8,44.9,30.22,East,99,3.0,5.0,60,0.00,,,0.00,Wunderground v.1.15,2013-04-28 19:05:00,
2013-04-28 15:10:00,58.7,44.8,30.22,East,79,3.0,5.0,60,0.00,,,0.00,Wunderground v.1.15,2013-04-28 19:10:00,
2013-04-28 15:15:00,58.9,45.5,30.21,NE,38,2.0,5.0,61,0.00,,,0.00,Wunderground v.1.15,2013-04-28 19:15:00,
2013-04-28 15:20:00,58.8,46.2,30.21,NNE,30,2.0,3.0,63,0.00,,,0.00,Wunderground v.1.15,2013-04-28 19:20:00,
2013-04-28 15:25:00,58.8,46.2,30.21,East,81,3.0,3.0,63,0.00,,,0.00,Wunderground v.1.15,2013-04-28 19:25:00,
2013-04-28 15:30:00,58.6,46.5,30.21,ESE,123,3.0,3.0,64,0.00,,,0.00,Wunderground v.1.15,2013-04-28 19:30:00,
2013-04-28 15:35:00,58.4,46.3,30.21,SSE,149,2.0,3.0,64,0.00,,,0.00,Wunderground v.1.15,2013-04-28 19:35:00,
2013-04-28 15:40:00,59.0,42.8,30.21,SE,134,1.0,1.0,55,0.00,,,0.00,Wunderground v.1.15,2013-04-28 19:40:00,
2013-04-28 15:45:00,60.2,44.0,30.20,East,88,1.0,2.0,55,0.00,,,0.00,Wunderground v.1.15,2013-04-28 19:45:00,
2013-04-28 15:55:00,61.3,43.0,30.20,ENE,65,1.0,5.0,51,0.00,,,0.00,Wunderground v.1.15,2013-04-28 19:55:00,
2013-04-28 16:00:00,61.5,42.7,30.20,South,180,2.0,2.0,50,0.00,,,0.00,Wunderground v.1.15,2013-04-28 20:00:00,
2013-04-28 16:05:00,61.6,42.8,30.20,ENE,60,1.0,2.0,50,0.00,,,0.00,Wunderground v.1.15,2013-04-28 20:05:00,
2013-04-28 16:10:00,61.6,42.2,30.20,East,99,2.0,2.0,49,0.00,,,0.00,Wunderground v.1.15,2013-04-28 20:10:00,
2013-04-28 16:15:00,61.5,42.7,30.20,North,351,2.0,2.0,50,0.00,,,0.00,Wunderground v.1.15,2013-04-28 20:15:00,
2013-04-28 16:20:00,61.3,43.5,30.19,ESE,103,1.0,2.0,52,0.00,,,0.00,Wunderground v.1.15,2013-04-28 20:20:00,
2013-04-28 16:25:00,61.3,43.5,30.19,East,101,1.0,6.0,52,0.00,,,0.00,Wunderground v.1.15,2013-04-28 20:25:00,
2013-04-28 16:30:00,61.3,43.5,30.19,ENE,62,1.0,2.0,52,0.00,,,0.00,Wunderground v.1.15,2013-04-28 20:30:00,
2013-04-28 16:35:00,60.9,43.1,30.19,SE,125,2.0,2.0,52,0.00,,,0.00,Wunderground v.1.15,2013-04-28 20:35:00,
2013-04-28 16:40:00,60.7,43.5,30.19,ESE,123,2.0,2.0,53,0.00,,,0.00,Wunderground v.1.15,2013-04-28 20:40:00,
2013-04-28 16:50:00,60.3,43.1,30.19,ESE,107,2.0,2.0,53,0.00,,,0.00,Wunderground v.1.15,2013-04-28 20:50:00,
2013-04-28 16:55:00,60.1,43.9,30.19,SSE,166,2.0,3.0,55,0.00,,,0.00,Wunderground v.1.15,2013-04-28 20:55:00,
2013-04-28 17:00:00,59.9,43.7,30.19,ESE,122,1.0,1.0,55,0.00,,,0.00,Wunderground v.1.15,2013-04-28 21:00:00,
2013-04-28 17:05:00,59.9,44.2,30.19,SE,125,1.0,1.0,56,0.00,,,0.00,Wunderground v.1.15,2013-04-28 21:05:00,
2013-04-28 17:15:00,59.9,44.2,30.19,SSE,153,1.0,3.0,56,0.00,,,0.00,Wunderground v.1.15,2013-04-28 21:15:00,
2013-04-28 17:20:00,59.5,43.8,30.19,SE,142,1.0,1.0,56,0.00,,,0.00,Wunderground v.1.15,2013-04-28 21:20:00,
2013-04-28 17:25:00,59.1,43.9,30.19,East,96,1.0,1.0,57,0.00,,,0.00,Wunderground v.1.15,2013-04-28 21:25:00,
2013-04-28 17:30:00,59.0,43.8,30.19,SSE,157,1.0,1.0,57,0.00,,,0.00,Wunderground v.1.15,2013-04-28 21:30:00,
2013-04-28 17:35:00,59.0,43.8,30.19,ENE,72,1.0,1.0,57,0.00,,,0.00,Wunderground v.1.15,2013-04-28 21:35:00,
2013-04-28 17:40:00,59.0,44.2,30.19,ENE,74,1.0,2.0,58,0.00,,,0.00,Wunderground v.1.15,2013-04-28 21:40:00,
2013-04-28 17:45:00,59.0,43.8,30.19,South,172,1.0,2.0,57,0.00,,,0.00,Wunderground v.1.15,2013-04-28 21:45:00,
2013-04-28 17:55:00,58.7,44.4,30.19,SSE,150,1.0,1.0,59,0.00,,,0.00,Wunderground v.1.15,2013-04-28 21:55:00,
2013-04-28 18:00:00,58.7,44.4,30.19,East,87,1.0,1.0,59,0.00,,,0.00,Wunderground v.1.15,2013-04-28 22:00:00,
2013-04-28 18:05:00,58.6,44.3,30.19,ESE,114,0.0,1.0,59,0.00,,,0.00,Wunderground v.1.15,2013-04-28 22:05:00,
2013-04-28 18:10:00,58.3,44.0,30.19,ESE,117,1.0,1.0,59,0.00,,,0.00,Wunderground v.1.15,2013-04-28 22:10:00,
2013-04-28 18:15:00,58.1,44.3,30.19,SE,127,1.0,1.0,60,0.00,,,0.00,Wunderground v.1.15,2013-04-28 22:15:00,
2013-04-28 18:20:00,57.8,44.0,30.19,South,182,1.0,1.0,60,0.00,,,0.00,Wunderground v.1.15,2013-04-28 22:20:00,
2013-04-28 18:25:00,57.5,44.1,30.19,SE,126,1.0,1.0,61,0.00,,,0.00,Wunderground v.1.15,2013-04-28 22:25:00,
2013-04-28 18:30:00,57.2,43.9,30.19,ENE,78,1.0,1.0,61,0.00,,,0.00,Wunderground v.1.15,2013-04-28 22:30:00,
2013-04-28 18:40:00,56.7,43.8,30.19,SE,138,1.0,1.0,62,0.00,,,0.00,Wunderground v.1.15,2013-04-28 22:40:00,
2013-04-28 18:45:00,56.4,43.5,30.19,North,360,0.0,1.0,62,0.00,,,0.00,Wunderground v.1.15,2013-04-28 22:45:00,
2013-04-28 18:50:00,56.2,43.3,30.19,South,182,0.0,0.0,62,0.00,,,0.00,Wunderground v.1.15,2013-04-28 22:50:00,
2013-04-28 18:55:00,55.9,43.1,30.19,SSE,160,1.0,1.0,62,0.00,,,0.00,Wunderground v.1.15,2013-04-28 22:55:00,
2013-04-28 19:00:00,55.7,42.9,30.19,SE,132,1.0,1.0,62,0.00,,,0.00,Wunderground v.1.15,2013-04-28 23:00:00,
2013-04-28 19:10:00,55.1,43.1,30.19,SE,125,0.0,0.0,64,0.00,,,0.00,Wunderground v.1.15,2013-04-28 23:10:00,
2013-04-28 19:15:00,54.9,43.4,30.18,SE,126,0.0,0.0,65,0.00,,,0.00,Wunderground v.1.15,2013-04-28 23:15:00,
2013-04-28 19:20:00,54.6,43.5,30.18,SE,140,0.0,3.0,66,0.00,,,0.00,Wunderground v.1.15,2013-04-28 23:20:00,
2013-04-28 19:25:00,54.3,43.6,30.19,ESE,105,0.0,3.0,67,0.00,,,0.00,Wunderground v.1.15,2013-04-28 23:25:00,
2013-04-28 19:30:00,54.1,43.8,30.18,ESE,113,0.0,0.0,68,0.00,,,0.00,Wunderground v.1.15,2013-04-28 23:30:00,
2013-04-28 19:35:00,53.8,43.9,30.18,East,88,0.0,0.0,69,0.00,,,0.00,Wunderground v.1.15,2013-04-28 23:35:00,
2013-04-28 19:40:00,53.6,43.7,30.18,East,89,0.0,0.0,69,0.00,,,0.00,Wunderground v.1.15,2013-04-28 23:40:00,
2013-04-28 19:45:00,53.4,43.9,30.18,East,88,0.0,0.0,70,0.00,,,0.00,Wunderground v.1.15,2013-04-28 23:45:00,
2013-04-28 19:50:00,53.2,43.7,30.18,East,91,0.0,0.0,70,0.00,,,0.00,Wunderground v.1.15,2013-04-28 23:50:00,
2013-04-28 20:00:00,52.8,43.7,30.18,South,186,0.0,0.0,71,0.00,,,0.00,Wunderground v.1.15,2013-04-29 00:00:00,
2013-04-28 20:05:00,52.8,44.0,30.18,SSE,156,0.0,2.0,72,0.00,,,0.00,Wunderground v.1.15,2013-04-29 00:05:00,
2013-04-28 20:10:00,52.8,44.0,30.18,SSE,149,0.0,0.0,72,0.00,,,0.00,Wunderground v.1.15,2013-04-29 00:10:00,
2013-04-28 20:20:00,52.8,43.7,30.18,SE,128,0.0,0.0,71,0.00,,,0.00,Wunderground v.1.15,2013-04-29 00:20:00,
2013-04-28 20:25:00,52.8,43.7,30.18,SE,145,0.0,0.0,71,0.00,,,0.00,Wunderground v.1.15,2013-04-29 00:25:00,
2013-04-28 20:30:00,52.8,43.7,30.18,SSE,151,1.0,1.0,71,0.00,,,0.00,Wunderground v.1.15,2013-04-29 00:30:00,
2013-04-28 20:35:00,52.8,43.7,30.18,SSE,151,0.0,1.0,71,0.00,,,0.00,Wunderground v.1.15,2013-04-29 00:35:00,
2013-04-28 20:40:00,52.7,43.2,30.18,SSE,150,0.0,0.0,70,0.00,,,0.00,Wunderground v.1.15,2013-04-29 00:40:00,
2013-04-28 20:45:00,52.7,43.2,30.18,ESE,112,0.0,0.0,70,0.00,,,0.00,Wunderground v.1.15,2013-04-29 00:45:00,
2013-04-28 20:50:00,52.6,42.7,30.18,South,172,0.0,0.0,69,0.00,,,0.00,Wunderground v.1.15,2013-04-29 00:50:00,
2013-04-28 20:55:00,52.6,42.7,30.18,South,171,0.0,0.0,69,0.00,,,0.00,Wunderground v.1.15,2013-04-29 00:55:00,
2013-04-28 21:00:00,52.6,42.7,30.18,SSE,152,0.0,0.0,69,0.00,,,0.00,Wunderground v.1.15,2013-04-29 01:00:00,
2013-04-28 21:10:00,52.4,42.5,30.19,SSE,152,0.0,0.0,69,0.00,,,0.00,Wunderground v.1.15,2013-04-29 01:10:00,
2013-04-28 21:15:00,52.3,42.4,30.19,SE,146,0.0,0.0,69,0.00,,,0.00,Wunderground v.1.15,2013-04-29 01:15:00,
2013-04-28 21:25:00,52.3,42.4,30.19,SE,141,0.0,1.0,69,0.00,,,0.00,Wunderground v.1.15,2013-04-29 01:25:00,
2013-04-28 21:35:00,52.0,42.1,30.19,SE,141,0.0,0.0,69,0.00,,,0.00,Wunderground v.1.15,2013-04-29 01:35:00,
2013-04-28 21:40:00,51.9,42.0,30.19,SSE,147,0.0,0.0,69,0.00,,,0.00,Wunderground v.1.15,2013-04-29 01:40:00,
2013-04-28 21:45:00,51.8,41.9,30.19,SE,146,0.0,0.0,69,0.00,,,0.00,Wunderground v.1.15,2013-04-29 01:45:00,
2013-04-28 21:50:00,51.6,41.4,30.19,SSE,148,0.0,0.0,68,0.00,,,0.00,Wunderground v.1.15,2013-04-29 01:50:00,
2013-04-28 21:55:00,51.6,41.4,30.20,SE,146,0.0,0.0,68,0.00,,,0.00,Wunderground v.1.15,2013-04-29 01:55:00,
2013-04-28 22:00:00,51.5,41.3,30.20,SE,146,0.0,0.0,68,0.00,,,0.00,Wunderground v.1.15,2013-04-29 02:00:00,
2013-04-28 22:05:00,51.5,41.3,30.20,SE,146,0.0,0.0,68,0.00,,,0.00,Wunderground v.1.15,2013-04-29 02:05:00,
2013-04-28 22:10:00,51.4,41.2,30.20,SE,146,0.0,0.0,68,0.00,,,0.00,Wunderground v.1.15,2013-04-29 02:10:00,
2013-04-28 22:15:00,51.4,41.2,30.20,SSE,157,0.0,0.0,68,0.00,,,0.00,Wunderground v.1.15,2013-04-29 02:15:00,
2013-04-28 22:20:00,51.3,41.1,30.19,SSE,156,0.0,0.0,68,0.00,,,0.00,Wunderground v.1.15,2013-04-29 02:20:00,
2013-04-28 22:25:00,51.3,40.7,30.20,SSE,149,0.0,0.0,67,0.00,,,0.00,Wunderground v.1.15,2013-04-29 02:25:00,
2013-04-28 22:35:00,51.2,40.6,30.20,SSE,149,0.0,0.0,67,0.00,,,0.00,Wunderground v.1.15,2013-04-29 02:35:00,
2013-04-28 22:40:00,50.9,40.3,30.20,SSE,149,0.0,0.0,67,0.00,,,0.00,Wunderground v.1.15,2013-04-29 02:40:00,
2013-04-28 22:45:00,50.7,40.5,30.20,SSE,149,0.0,0.0,68,0.00,,,0.00,Wunderground v.1.15,2013-04-29 02:45:00,
2013-04-28 22:55:00,50.1,40.3,30.20,SSE,149,0.0,0.0,69,0.00,,,0.00,Wunderground v.1.15,2013-04-29 02:55:00,
2013-04-28 23:00:00,49.8,40.0,30.20,SSE,149,0.0,0.0,69,0.00,,,0.00,Wunderground v.1.15,2013-04-29 03:00:00,
2013-04-28 23:05:00,49.5,39.7,30.20,SSE,149,0.0,0.0,69,0.00,,,0.00,Wunderground v.1.15,2013-04-29 03:05:00,
2013-04-28 23:10:00,49.2,39.5,30.20,SSE,149,0.0,0.0,69,0.00,,,0.00,Wunderground v.1.15,2013-04-29 03:10:00,
2013-04-28 23:15:00,49.1,39.4,30.20,SSE,149,0.0,0.0,69,0.00,,,0.00,Wunderground v.1.15,2013-04-29 03:15:00,
2013-04-28 23:20:00,48.9,39.5,30.20,SSE,149,0.0,0.0,70,0.00,,,0.00,Wunderground v.1.15,2013-04-29 03:20:00,
2013-04-28 23:25:00,48.6,39.3,30.20,SSE,149,0.0,0.0,70,0.00,,,0.00,Wunderground v.1.15,2013-04-29 03:25:00,
2013-04-28 23:30:00,48.4,39.1,30.20,SSE,149,0.0,0.0,70,0.00,,,0.00,Wunderground v.1.15,2013-04-29 03:30:00,
2013-04-28 23:35:00,48.2,39.2,30.20,SSE,149,0.0,0.0,71,0.00,,,0.00,Wunderground v.1.15,2013-04-29 03:35:00,
2013-04-28 23:45:00,47.8,38.8,30.21,SSE,149,0.0,0.0,71,0.00,,,0.00,Wunderground v.1.15,2013-04-29 03:45:00,
2013-04-28 23:50:00,47.6,38.7,30.21,SSE,149,0.0,0.0,71,0.00,,,0.00,Wunderground v.1.15,2013-04-29 03:50:00,
2013-04-28 23:55:00,47.4,38.5,30.21,SSE,149,0.0,0.0,71,0.00,,,0.00,Wunderground v.1.15,2013-04-29 03:55:00,